Flag for Costa Rica Weather past 2 weeks in Alajuela, Costa Rica

Now
68 °F

Light rain. Fog.


Feels Like: 68 °F
Forecast: 67 / 78 °F
Wind: 3 mph from West

Location: Juan Santamaria

Current Time: Sep 16, 2014 at 6:24:16 PM

Latest Report: Sep 16, 2014 at 6:00 PM


Visibility: 3 mi

Pressure: 30.02 "Hg

Humidity: 100%

Dew point: 68 °F

Location of AlajuelaLocation

Historic Weather in Alajuela — Graph

°F

Alajuela temperature yesterday

Maximum temperature yesterday: 81 °F (at 10:00 AM)
Minimum temperature yesterday: 66 °F (at 1:00 AM)
Average temperature yesterday: 72 °F

Past Weeks' High & Low Weather Summary

 TemperatureHumidityPressure
High86 °F (Sep 2, 12:00 PM)100% (Sep 2, 8:00 PM)30.14 "Hg (Sep 2, 8:00 PM)
Low64 °F (Sep 4, 2:00 AM)46% (Sep 2, 12:00 PM)29.90 "Hg (Sep 11, 3:00 PM)
Average72 °F81%29.99 "Hg
* Reported Sep 1 5:00 PM — Sep 16 5:00 PM, Alajuela, Weather by CustomWeather, © 2014

Note: Actual official high and low records may vary slightly from our data, if they occured in-between our weather recording intervals... More about our weather records

Advertising

Alajuela weather history for previous 24 hours

 ConditionsComfort  
Time TempWeatherWind HumidityBarometerVisibility
5:00 PM
Sep 16
68 °FLight rain. Fog.7 mph94%30.02 "Hg2 mi
4:00 PM70 °FLight rain. Fog.6 mph94%30.00 "Hg3 mi
3:00 PM72 °FLight rain. Broken clouds.5 mph88%29.99 "Hg5 mi
2:00 PM75 °FRain. Broken clouds.16 mph83%29.99 "HgN/A
1:00 PM81 °FBroken clouds.10 mph66%30.01 "HgN/A
12:00 PM82 °FBroken clouds.6 mph48%30.05 "HgN/A
11:00 AM82 °FBroken clouds.7 mph51%30.07 "HgN/A
10:00 AM81 °FPartly sunny.10 mph58%30.09 "HgN/A
9:00 AM75 °FSunny.8 mph65%30.09 "Hg10 mi
8:00 AM73 °FSunny.7 mph69%30.09 "Hg10 mi
7:00 AM73 °FSunny.7 mph69%30.08 "Hg10 mi
6:00 AM68 °FSunny.8 mph83%30.06 "Hg10 mi
5:00 AM72 °FClear.9 mph69%30.05 "Hg10 mi
4:00 AM70 °FClear.8 mph78%30.03 "Hg10 mi
3:00 AM68 °FPassing clouds.5 mph88%30.03 "HgN/A
2:00 AM70 °FPassing clouds.7 mph83%30.05 "HgN/A
1:00 AM68 °FPartly cloudy.5 mph100%30.07 "HgN/A
12:00 AM70 °FFog.No wind94%30.09 "HgN/A
11:00 PM
Sep 15
70 °FFog.No wind94%30.13 "Hg5 mi
10:00 PM70 °FFog.No wind94%30.14 "HgN/A
9:00 PM70 °FFog.No wind94%30.13 "Hg5 mi
8:00 PM70 °FFog.5 mph94%30.10 "Hg2 mi
7:00 PM70 °FFog.3 mph100%30.08 "Hg2 mi
6:00 PM70 °FFog.6 mph100%30.05 "Hg2 mi
Weather by CustomWeather, © 2014

See weather overviewHow to use our weather pages